Content
SEND FEEDBACK

Daily
Averages
Monthly
Summary
United States of America

DRAYTON, SOUTH CAROLINA


Home > North America > United States > South Carolina
Elevation: 839 feet     Latitude: 34 59N     Longitude: 081 53W

WEATHER
 
SELECT A DAY
Number of Records: 132,700;   Date Range: 2/9/98 - 9/29/14
 
SHARE

PRINT THIS DATA

[ ← Previous Day ]
WEATHER ALMANAC - JANUARY 31, 2013
[ Next Day → ]
[ °C ]   °F
Weather ElementAverageHighLow
Temperature45.2 °F51.8 °F (2:35 pm)37.4 °F (6:55 am)
Dewpoint28.1 °F46.4 °F (12:35 am)19.4 °F (4:15 pm)
Humidity53.7 %87 % (12:35 am)28 % (4:15 pm)
Barometer29.91 in30.06 in (9:55 pm)29.60 in (12:35 am)
Wind Speed13.5 mph19.6 mph (1:35 am)
Wind Gust31.1 mph (3:35 am)
Weather ElementAverage
Visibility10 mi
Wind DirectionWSW (251.6 °)

Weather ElementTotal
Precipitation---
Heating Degree Days20.4 (Base 65)
Averaged from 70 records on January 31, 2013
WEATHER CONDITIONS BREAKOUT
WIND DIRECTION BREAKOUT
WEATHER BY HOUR - JANUARY 31, 2013
[ °C ]   °F
Local TimeTemperatureDewpointHumidityBarometerVisibilityWind DirectionWind SpeedGust SpeedPrecipitationEventsConditions
12:35 AM50.0 °F46.4 °F87 %29.60 in10.0 miSW (230°)15.0 mph24.2 mphMostly Cloudy
12:55 AM50.0 °F44.6 °F82 %29.61 in10.0 miSW (230°)13.8 mph27.6 mphScattered Clouds
1:15 AM50.0 °F44.6 °F82 %29.61 in10.0 miSW (230°)17.3 mph27.6 mphMostly Cloudy
1:35 AM50.0 °F44.6 °F82 %29.62 in10.0 miWSW (250°)19.6 mph25.3 mphScattered Clouds
1:55 AM50.0 °F42.8 °F76 %29.64 in10.0 miWSW (240°)18.4 mph29.9 mphScattered Clouds
2:15 AM48.2 °F42.8 °F82 %29.65 in10.0 miWSW (250°)16.1 mph28.8 mphScattered Clouds
2:35 AM46.4 °F39.2 °F76 %29.66 in10.0 miWSW (250°)17.3 mph25.3 mphClear
2:55 AM46.4 °F37.4 °F71 %29.68 in10.0 miWSW (240°)16.1 mph25.3 mphClear
3:15 AM44.6 °F37.4 °F76 %29.69 in10.0 miWSW (250°)18.4 mph24.2 mphClear
3:35 AM44.6 °F35.6 °F71 %29.70 in10.0 miWSW (250°)17.3 mph31.1 mphClear
3:55 AM44.6 °F35.6 °F71 %29.72 in10.0 miWSW (250°)16.1 mph28.8 mphClear
4:15 AM42.8 °F35.6 °F76 %29.75 in10.0 miWest (260°)15.0 mph27.6 mphScattered Clouds
4:35 AM42.8 °F35.6 °F76 %29.75 in10.0 miWSW (250°)15.0 mph24.2 mphScattered Clouds
4:55 AM42.8 °F33.8 °F70 %29.77 in10.0 miWest (260°)18.4 mph23.0 mphClear
5:15 AM41.0 °F32.0 °F70 %29.77 in10.0 miWSW (250°)13.8 mph24.2 mphClear
5:35 AM41.0 °F32.0 °F70 %29.79 in10.0 miWSW (250°)13.8 mph20.7 mphClear
6:15 AM39.2 °F30.2 °F70 %29.82 in10.0 miWest (270°)9.2 mphClear
6:35 AM39.2 °F30.2 °F70 %29.83 in10.0 miWest (270°)13.8 mph19.6 mphClear
6:55 AM37.4 °F30.2 °F75 %29.85 in10.0 miWest (260°)11.5 mphClear
7:15 AM37.4 °F28.4 °F70 %29.87 in10.0 miWest (260°)13.8 mph21.9 mphClear
7:35 AM37.4 °F28.4 °F70 %29.88 in10.0 miWest (260°)11.5 mphClear
7:55 AM37.4 °F28.4 °F70 %29.89 in10.0 miWest (260°)10.4 mphClear
8:15 AM39.2 °F28.4 °F65 %29.90 in10.0 miWest (260°)12.7 mph17.3 mphClear
8:35 AM41.0 °F26.6 °F57 %29.91 in10.0 miWest (260°)12.7 mph18.4 mphClear
8:55 AM41.0 °F28.4 °F61 %29.93 in10.0 miWSW (250°)15.0 mph18.4 mphClear
9:15 AM41.0 °F28.4 °F61 %29.92 in10.0 miWest (260°)10.4 mph18.4 mphClear
9:35 AM41.0 °F26.6 °F57 %29.94 in10.0 miWest (260°)13.8 mph20.7 mphClear
9:55 AM42.8 °F28.4 °F57 %29.94 in10.0 miWSW (250°)17.3 mph21.9 mphClear
10:15 AM42.8 °F26.6 °F53 %29.95 in10.0 miWest (260°)17.3 mph23.0 mphClear
10:35 AM44.6 °F26.6 °F49 %29.96 in10.0 miWSW (250°)12.7 mph21.9 mphClear
10:55 AM44.6 °F26.6 °F49 %29.96 in10.0 miWSW (250°)16.1 mph21.9 mphClear
11:15 AM44.6 °F26.6 °F49 %29.96 in10.0 miWSW (250°)18.4 mph24.2 mphClear
11:35 AM46.4 °F26.6 °F46 %29.96 in10.0 miWest (260°)16.1 mph19.6 mphClear
11:55 AM46.4 °F26.6 °F46 %29.96 in10.0 miWSW (250°)10.4 mph19.6 mphClear
12:15 PM46.4 °F26.6 °F46 %29.95 in10.0 miWSW (250°)12.7 mph19.6 mphClear
12:35 PM48.2 °F26.6 °F43 %29.95 in10.0 miWSW (250°)18.4 mph24.2 mphClear
12:55 PM48.2 °F26.6 °F43 %29.95 in10.0 miWest (260°)16.1 mph21.9 mphClear
1:15 PM48.2 °F24.8 °F40 %29.95 in10.0 miWest (260°)13.8 mph24.2 mphClear
1:35 PM50.0 °F24.8 °F37 %29.94 in10.0 miWSW (250°)18.4 mph24.2 mphClear
1:55 PM50.0 °F23.0 °F35 %29.94 in10.0 miWSW (250°)16.1 mph26.5 mphClear
2:15 PM50.0 °F24.8 °F37 %29.94 in10.0 miWSW (250°)13.8 mph25.3 mphClear
2:35 PM51.8 °F24.8 °F35 %29.94 in10.0 miWSW (250°)18.4 mph25.3 mphClear
2:55 PM51.8 °F24.8 °F35 %29.95 in10.0 miWest (270°)15.0 mph26.5 mphClear
3:15 PM51.8 °F23.0 °F33 %29.96 in10.0 miSW (230°)15.0 mph23.0 mphClear
3:35 PM51.8 °F23.0 °F33 %29.96 in10.0 miWest (270°)13.8 mph24.2 mphClear
3:55 PM51.8 °F21.2 °F30 %29.97 in10.0 miWest (280°)19.6 mph28.8 mphClear
4:15 PM51.8 °F19.4 °F28 %29.98 in10.0 miWNW (300°)17.3 mph25.3 mphClear
4:35 PM51.8 °F21.2 °F30 %29.97 in10.0 miWest (260°)16.1 mph21.9 mphClear
4:55 PM51.8 °F19.4 °F28 %29.98 in10.0 miWest (280°)15.0 mph20.7 mphClear
5:15 PM50.0 °F19.4 °F30 %29.98 in10.0 miWest (280°)12.7 mph19.6 mphClear
5:35 PM50.0 °F21.2 °F32 %29.99 in10.0 miWest (270°)13.8 mph17.3 mphClear
5:55 PM48.2 °F19.4 °F32 %29.99 in10.0 miWest (270°)12.7 mph20.7 mphClear
6:15 PM46.4 °F21.2 °F37 %29.99 in10.0 miWest (260°)8.1 mph16.1 mphClear
6:35 PM46.4 °F21.2 °F37 %30.00 in10.0 miWest (270°)10.4 mphClear
6:55 PM44.6 °F21.2 °F39 %30.01 in10.0 miWSW (240°)5.8 mph10.4 mphClear
7:15 PM44.6 °F23.0 °F43 %30.02 in10.0 miSW (230°)9.2 mphClear
7:35 PM44.6 °F23.0 °F43 %30.02 in10.0 miSW (230°)6.9 mphClear
7:55 PM42.8 °F23.0 °F46 %30.03 in10.0 miWSW (240°)5.8 mphClear
8:15 PM42.8 °F23.0 °F46 %30.03 in10.0 miWSW (240°)8.1 mphClear
8:35 PM42.8 °F23.0 °F46 %30.03 in10.0 miWSW (240°)9.2 mphClear
8:55 PM42.8 °F23.0 °F46 %30.03 in10.0 miWSW (240°)9.2 mph16.1 mphClear
9:15 PM42.8 °F23.0 °F46 %30.04 in10.0 miWSW (240°)11.5 mphClear
9:35 PM42.8 °F24.8 °F49 %30.05 in10.0 miWSW (240°)10.4 mphClear
9:55 PM42.8 °F24.8 °F49 %30.06 in10.0 miWSW (240°)9.2 mphClear
10:15 PM42.8 °F24.8 °F49 %30.06 in10.0 miSW (220°)6.9 mphClear
10:35 PM42.8 °F24.8 °F49 %30.06 in10.0 miSW (230°)10.4 mphClear
10:55 PM42.8 °F24.8 °F49 %30.06 in10.0 miSW (230°)9.2 mphClear
11:15 PM41.0 °F26.6 °F57 %30.05 in10.0 miWSW (240°)11.5 mphClear
11:35 PM42.8 °F26.6 °F53 %30.05 in10.0 miWSW (240°)10.4 mph16.1 mphClear
11:55 PM42.8 °F26.6 °F53 %30.05 in10.0 miSW (230°)9.2 mph16.1 mphClear
Hourly data recorded from KSPA, located miles away from Drayton, South Carolina







STORIES FROM OUR PARTNERS